Location: Newark
(49.8348°N, 24.0280°E)
Time: 11:48:50
(UTC+00:00)

S-56A Canister/Altair - Pass Details

Date: 01 February 2020
Orbit: 633 x 2500 km, 38.9° (Epoch: 24 February)

Event Time Altitude Azimuth Distance (km) Brightness Sun altitude
Rises 14:49:02 0° 207° (SSW) 5,435 13.0 3.2°
Reaches altitude 10° 14:54:21 10° 192° (SSW) 4,071 11.9 2.5°
Maximum altitude 15:00:37 18° 154° (SSE) 2,976 10.6 1.6°
Drops below altitude 10° 15:05:39 10° 114° (ESE) 3,147 10.3 0.9°
Sets 15:09:01 0° 96° (E) 3,818 10.6 0.4°
